ASA1328 KDFW-KSAN

Flight info

Callsign ASA1328
Flight time 2h 51m
Altitude 34000
Route WSTEX2 CIKAN EWM J4 SSO GBN J2 HOGGZ LUCKI1
Aircraft B739/M-SDE2E3FGHIRWXY/L

Departure

Time 2026-05-05 00:29
Airport Dallas Fort Worth International Airport (KDFW)

Arrival

Time 2026-05-05 03:21
Airport San Diego International Airport (KSAN)
Time Latitude Longitude Altitude Speed Heading
2026-05-04 23:53 32.89232 -97.03569 583 ft 0 kts 224°
2026-05-05 00:09 32.89236 -97.03564 583 ft 3 kts 221°
2026-05-05 00:09 32.89252 -97.03550 583 ft 3 kts 203°
2026-05-05 00:09 32.89264 -97.03545 583 ft 3 kts 185°
2026-05-05 00:10 32.89284 -97.03547 583 ft 3 kts 152°
2026-05-05 00:10 32.89299 -97.03559 583 ft 1 kts 134°
2026-05-05 00:15 32.89289 -97.03547 583 ft 4 kts 132°
2026-05-05 00:15 32.89261 -97.03516 583 ft 8 kts 143°
2026-05-05 00:16 32.89213 -97.03483 583 ft 8 kts 152°
2026-05-05 00:16 32.89180 -97.03452 583 ft 6 kts 116°
2026-05-05 00:16 32.89175 -97.03401 583 ft 7 kts 93°
2026-05-05 00:16 32.89185 -97.03342 583 ft 7 kts 49°
2026-05-05 00:17 32.89231 -97.03319 582 ft 8 kts
2026-05-05 00:17 32.89293 -97.03318 583 ft 11 kts
2026-05-05 00:17 32.89382 -97.03317 584 ft 15 kts 360°
2026-05-05 00:17 32.89498 -97.03316 585 ft 18 kts
2026-05-05 00:18 32.89633 -97.03315 585 ft 22 kts
2026-05-05 00:18 32.89776 -97.03315 585 ft 24 kts
2026-05-05 00:18 32.89867 -97.03313 585 ft 10 kts 358°
2026-05-05 00:18 32.89950 -97.03314 585 ft 12 kts 360°
2026-05-05 00:19 32.90031 -97.03314 584 ft 12 kts
2026-05-05 00:19 32.90113 -97.03313 584 ft 11 kts
2026-05-05 00:19 32.90186 -97.03313 584 ft 11 kts
2026-05-05 00:19 32.90256 -97.03312 584 ft 11 kts
2026-05-05 00:20 32.90329 -97.03311 584 ft 10 kts
2026-05-05 00:20 32.90401 -97.03311 584 ft 10 kts 360°
2026-05-05 00:20 32.90469 -97.03312 584 ft 10 kts 359°
2026-05-05 00:20 32.90540 -97.03313 584 ft 10 kts 359°
2026-05-05 00:21 32.90609 -97.03311 584 ft 11 kts
2026-05-05 00:21 32.90692 -97.03310 584 ft 10 kts
2026-05-05 00:21 32.90760 -97.03310 584 ft 10 kts
2026-05-05 00:21 32.90830 -97.03309 585 ft 10 kts
2026-05-05 00:22 32.90892 -97.03340 585 ft 10 kts 306°
2026-05-05 00:22 32.90904 -97.03422 585 ft 10 kts 271°
2026-05-05 00:22 32.90905 -97.03506 585 ft 10 kts 270°
2026-05-05 00:22 32.90905 -97.03590 586 ft 11 kts 270°
2026-05-05 00:23 32.90905 -97.03693 593 ft 12 kts 271°
2026-05-05 00:23 32.90905 -97.03794 602 ft 12 kts 270°
2026-05-05 00:23 32.90906 -97.03894 608 ft 12 kts 270°
2026-05-05 00:23 32.90906 -97.04005 608 ft 14 kts 270°
2026-05-05 00:24 32.90906 -97.04123 608 ft 14 kts 271°
2026-05-05 00:24 32.90907 -97.04238 609 ft 14 kts 270°
2026-05-05 00:24 32.90907 -97.04357 605 ft 16 kts 271°
2026-05-05 00:24 32.90908 -97.04483 598 ft 17 kts 269°
2026-05-05 00:25 32.90908 -97.04612 597 ft 13 kts 269°
2026-05-05 00:25 32.90909 -97.04711 600 ft 11 kts 278°
2026-05-05 00:25 32.90967 -97.04761 604 ft 11 kts 344°
2026-05-05 00:25 32.91038 -97.04788 608 ft 11 kts 344°
2026-05-05 00:26 32.91110 -97.04793 614 ft 10 kts
2026-05-05 00:26 32.91180 -97.04792 616 ft 10 kts 360°
2026-05-05 00:26 32.91248 -97.04792 615 ft 10 kts
2026-05-05 00:26 32.91330 -97.04791 613 ft 14 kts
2026-05-05 00:27 32.91426 -97.04790 617 ft 14 kts
2026-05-05 00:27 32.91488 -97.04826 618 ft 10 kts 295°
2026-05-05 00:27 32.91492 -97.04909 612 ft 10 kts 270°
2026-05-05 00:27 32.91492 -97.04988 612 ft 10 kts 269°
2026-05-05 00:28 32.91479 -97.05064 616 ft 9 kts 223°
2026-05-05 00:28 32.91415 -97.05075 620 ft 11 kts 181°
2026-05-05 00:28 32.91174 -97.05072 619 ft 72 kts 179°
2026-05-05 00:28 32.90574 -97.05074 600 ft 127 kts 181°
2026-05-05 00:29 32.89717 -97.05048 634 ft 166 kts 176°
2026-05-05 00:29 32.88536 -97.05021 1263 ft 174 kts 178°
2026-05-05 00:29 32.87332 -97.05019 2135 ft 165 kts 182°
2026-05-05 00:29 32.86151 -97.05038 2779 ft 177 kts 183°
2026-05-05 00:30 32.84844 -97.05066 2948 ft 197 kts 182°
2026-05-05 00:30 32.83430 -97.05099 3180 ft 208 kts 184°
2026-05-05 00:30 32.81947 -97.05131 3441 ft 219 kts 184°
2026-05-05 00:30 32.80373 -97.05172 3674 ft 231 kts 184°
2026-05-05 00:31 32.78751 -97.05216 4121 ft 237 kts 184°
2026-05-05 00:31 32.77106 -97.05259 4706 ft 240 kts 184°
2026-05-05 00:31 32.75414 -97.05305 5231 ft 246 kts 186°
2026-05-05 00:31 32.73661 -97.05357 5691 ft 254 kts 187°
2026-05-05 00:32 32.71974 -97.05859 6165 ft 251 kts 214°
2026-05-05 00:32 32.70700 -97.07260 6566 ft 254 kts 237°
2026-05-05 00:32 32.69992 -97.09178 7044 ft 255 kts 256°
2026-05-05 00:32 32.69568 -97.11247 7527 ft 261 kts 257°
2026-05-05 00:33 32.69156 -97.13355 8105 ft 262 kts 258°
2026-05-05 00:33 32.68950 -97.15481 8704 ft 263 kts 267°
2026-05-05 00:33 32.68907 -97.17655 9324 ft 263 kts 269°
2026-05-05 00:33 32.68891 -97.19830 9904 ft 264 kts 269°
2026-05-05 00:34 32.68873 -97.22041 10281 ft 274 kts 269°
2026-05-05 00:34 32.68848 -97.24379 10404 ft 293 kts 269°
2026-05-05 00:34 32.68814 -97.26876 10554 ft 310 kts 269°
2026-05-05 00:34 32.68771 -97.29499 10677 ft 326 kts 269°
2026-05-05 00:35 32.68722 -97.32218 10786 ft 341 kts 269°
2026-05-05 00:35 32.68666 -97.35105 10856 ft 355 kts 269°
2026-05-05 00:35 32.68605 -97.38070 10981 ft 366 kts 269°
2026-05-05 00:35 32.68541 -97.41115 11270 ft 371 kts 269°
2026-05-05 00:36 32.68475 -97.44191 11682 ft 373 kts 269°
2026-05-05 00:36 32.68407 -97.47286 12125 ft 374 kts 269°
2026-05-05 00:36 32.68361 -97.49326 12419 ft 375 kts 269°
2026-05-05 00:37 32.68203 -97.56365 13455 ft 378 kts 269°
2026-05-05 00:37 32.68131 -97.59505 13845 ft 381 kts 269°
2026-05-05 00:37 32.68058 -97.62655 14281 ft 381 kts 270°
2026-05-05 00:37 32.67985 -97.65812 14686 ft 383 kts 270°
2026-05-05 00:38 32.67910 -97.68984 15058 ft 386 kts 270°
2026-05-05 00:38 32.67835 -97.72150 15334 ft 388 kts 270°
2026-05-05 00:38 32.67721 -97.75320 15718 ft 390 kts 268°
2026-05-05 00:38 32.67494 -97.78558 16098 ft 392 kts 266°
2026-05-05 00:39 32.67225 -97.81777 16465 ft 394 kts 266°
2026-05-05 00:39 32.66943 -97.85052 16819 ft 397 kts 266°
2026-05-05 00:39 32.66670 -97.88283 17163 ft 399 kts 266°
2026-05-05 00:39 32.66401 -97.91568 17529 ft 400 kts 266°
2026-05-05 00:40 32.66135 -97.94873 17868 ft 403 kts 266°
2026-05-05 00:40 32.65872 -97.98194 18165 ft 405 kts 267°
2026-05-05 00:40 32.65608 -98.01522 18513 ft 404 kts 267°
2026-05-05 00:40 32.65348 -98.04812 18861 ft 404 kts 267°
2026-05-05 00:41 32.65083 -98.08139 19198 ft 404 kts 267°
2026-05-05 00:41 32.64818 -98.11465 19495 ft 405 kts 267°
2026-05-05 00:41 32.64552 -98.14793 19816 ft 405 kts 267°
2026-05-05 00:41 32.64285 -98.18132 20122 ft 405 kts 268°
2026-05-05 00:42 32.64017 -98.21455 20415 ft 405 kts 268°
2026-05-05 00:42 32.63747 -98.24792 20650 ft 407 kts 268°
2026-05-05 00:42 32.63475 -98.28151 20947 ft 407 kts 268°
2026-05-05 00:42 32.63207 -98.31450 21256 ft 406 kts 268°
2026-05-05 00:43 32.62935 -98.34791 21502 ft 407 kts 268°
2026-05-05 00:43 32.62661 -98.38137 21748 ft 407 kts 268°
2026-05-05 00:43 32.62386 -98.41499 21975 ft 408 kts 268°
2026-05-05 00:43 32.62113 -98.44814 22203 ft 409 kts 268°
2026-05-05 00:44 32.61835 -98.48189 22430 ft 409 kts 268°
2026-05-05 00:44 32.61557 -98.51550 22665 ft 409 kts 268°
2026-05-05 00:44 32.61279 -98.54903 22823 ft 411 kts 268°
2026-05-05 00:44 32.60998 -98.58279 23047 ft 412 kts 268°
2026-05-05 00:45 32.60714 -98.61674 23265 ft 412 kts 268°
2026-05-05 00:45 32.60429 -98.65065 23465 ft 412 kts 268°
2026-05-05 00:45 32.60148 -98.68408 23605 ft 413 kts 268°
2026-05-05 00:45 32.59858 -98.71841 23735 ft 413 kts 268°
2026-05-05 00:46 32.59573 -98.75213 23862 ft 414 kts 267°
2026-05-05 00:46 32.59284 -98.78620 24005 ft 415 kts 267°
2026-05-05 00:46 32.58997 -98.81984 24148 ft 415 kts 267°
2026-05-05 00:46 32.58708 -98.85362 24290 ft 416 kts 267°
2026-05-05 00:47 32.58415 -98.88787 24419 ft 417 kts 268°
2026-05-05 00:47 32.58120 -98.92211 24541 ft 417 kts 267°
2026-05-05 00:47 32.57826 -98.95622 24675 ft 418 kts 268°
2026-05-05 00:47 32.57528 -98.99065 24799 ft 418 kts 268°
2026-05-05 00:48 32.57233 -99.02461 24920 ft 419 kts 268°
2026-05-05 00:48 32.56934 -99.05888 25031 ft 419 kts 268°
2026-05-05 00:48 32.56634 -99.09327 25122 ft 420 kts 267°
2026-05-05 00:48 32.56331 -99.12777 25250 ft 420 kts 267°
2026-05-05 00:49 32.56028 -99.16229 25371 ft 421 kts 267°
2026-05-05 00:49 32.55723 -99.19685 25469 ft 421 kts 267°
2026-05-05 00:49 32.55420 -99.23103 25596 ft 421 kts 267°
2026-05-05 00:49 32.55115 -99.26546 25754 ft 419 kts 267°
2026-05-05 00:50 32.54809 -99.29983 25928 ft 418 kts 267°
2026-05-05 00:50 32.54502 -99.33424 26096 ft 417 kts 268°
2026-05-05 00:50 32.54245 -99.36848 26269 ft 416 kts 269°
2026-05-05 00:50 32.54042 -99.40219 26447 ft 415 kts 269°
2026-05-05 00:51 32.53853 -99.43635 26617 ft 414 kts 270°
2026-05-05 00:51 32.53668 -99.46998 26804 ft 413 kts 270°
2026-05-05 00:51 32.53476 -99.50383 27064 ft 410 kts 269°
2026-05-05 00:51 32.53281 -99.53733 27297 ft 409 kts 269°
2026-05-05 00:52 32.53080 -99.57101 27494 ft 408 kts 269°
2026-05-05 00:52 32.52878 -99.60430 27689 ft 408 kts 269°
2026-05-05 00:52 32.52673 -99.63770 27911 ft 407 kts 269°
2026-05-05 00:52 32.52465 -99.67131 28149 ft 406 kts 269°
2026-05-05 00:53 32.52261 -99.70424 28379 ft 405 kts 269°
2026-05-05 00:53 32.52052 -99.73768 28602 ft 404 kts 269°
2026-05-05 00:53 32.51844 -99.77082 28791 ft 403 kts 269°
2026-05-05 00:53 32.51638 -99.80361 29021 ft 402 kts 269°
2026-05-05 00:54 32.51429 -99.83677 29293 ft 401 kts 269°
2026-05-05 00:54 32.51221 -99.86950 29593 ft 399 kts 269°
2026-05-05 00:54 32.51013 -99.90215 29881 ft 397 kts 269°
2026-05-05 00:54 32.50805 -99.93467 30112 ft 396 kts 269°
2026-05-05 00:55 32.50596 -99.96726 30347 ft 395 kts 269°
2026-05-05 00:55 32.50390 -99.99922 30590 ft 393 kts 269°
2026-05-05 00:55 32.50180 -100.03163 30849 ft 392 kts 269°
2026-05-05 00:55 32.49971 -100.06379 31109 ft 390 kts 269°
2026-05-05 00:56 32.49763 -100.09578 31346 ft 389 kts 269°
2026-05-05 00:56 32.49554 -100.12776 31615 ft 388 kts 269°
2026-05-05 00:56 32.49345 -100.15957 31906 ft 386 kts 269°
2026-05-05 00:56 32.49206 -100.18057 32074 ft 385 kts 269°
2026-05-05 00:57 32.48930 -100.22245 32369 ft 385 kts 269°
2026-05-05 00:57 32.48788 -100.24397 32476 ft 386 kts 269°
2026-05-05 00:57 32.48579 -100.27527 32676 ft 386 kts 269°
2026-05-05 00:57 32.48296 -100.31753 33096 ft 385 kts 269°
2026-05-05 00:58 32.48087 -100.34909 33359 ft 384 kts 269°
2026-05-05 00:58 32.47948 -100.37000 33542 ft 382 kts 269°
2026-05-05 00:58 32.47672 -100.41193 33806 ft 382 kts 269°
2026-05-05 00:59 32.47260 -100.47430 33809 ft 382 kts 269°
2026-05-05 00:59 32.46842 -100.53705 33816 ft 381 kts 269°
2026-05-05 01:00 32.46421 -100.59967 33789 ft 381 kts 268°
2026-05-05 01:00 32.46070 -100.65167 33779 ft 382 kts 268°
2026-05-05 01:01 32.45641 -100.71458 33755 ft 383 kts 268°
2026-05-05 01:01 32.45211 -100.77713 33732 ft 384 kts 268°
2026-05-05 01:02 32.44774 -100.84028 33717 ft 384 kts 268°
2026-05-05 01:02 32.44333 -100.90358 33726 ft 385 kts 268°
2026-05-05 01:03 32.43892 -100.96640 33726 ft 385 kts 268°
2026-05-05 01:03 32.43445 -101.02954 33729 ft 385 kts 268°
2026-05-05 01:04 32.42995 -101.09281 33716 ft 385 kts 268°
2026-05-05 01:04 32.42316 -101.18734 33702 ft 384 kts 268°
2026-05-05 01:05 32.41858 -101.25048 33687 ft 384 kts 268°
2026-05-05 01:05 32.41401 -101.31308 33690 ft 384 kts 268°
2026-05-05 01:06 32.40938 -101.37610 33700 ft 384 kts 268°
2026-05-05 01:06 32.40471 -101.43923 33696 ft 384 kts 268°
2026-05-05 01:07 32.40003 -101.50216 33698 ft 384 kts 268°
2026-05-05 01:07 32.39533 -101.56480 33698 ft 384 kts 267°
2026-05-05 01:08 32.39057 -101.62782 33699 ft 384 kts 267°
2026-05-05 01:08 32.38581 -101.69051 33704 ft 384 kts 267°
2026-05-05 01:09 32.38098 -101.75360 33708 ft 384 kts 267°
2026-05-05 01:09 32.37616 -101.81615 33712 ft 383 kts 267°
2026-05-05 01:10 32.37129 -101.87899 33712 ft 383 kts 267°
2026-05-05 01:10 32.36638 -101.94201 33709 ft 383 kts 267°
2026-05-05 01:11 32.36147 -102.00445 33706 ft 383 kts 267°
2026-05-05 01:11 32.35650 -102.06736 33700 ft 384 kts 266°
2026-05-05 01:12 32.35152 -102.13006 33711 ft 385 kts 266°
2026-05-05 01:12 32.34645 -102.19338 33728 ft 385 kts 266°
2026-05-05 01:13 32.34140 -102.25612 33724 ft 386 kts 266°
2026-05-05 01:13 32.33627 -102.31942 33721 ft 386 kts 266°
2026-05-05 01:14 32.33109 -102.38293 33725 ft 387 kts 266°
2026-05-05 01:14 32.32591 -102.44610 33717 ft 387 kts 266°
2026-05-05 01:15 32.32070 -102.50918 33729 ft 387 kts 266°
2026-05-05 01:15 32.31543 -102.57257 33728 ft 387 kts 266°
2026-05-05 01:16 32.31011 -102.63614 33738 ft 388 kts 266°
2026-05-05 01:16 32.30481 -102.69929 33733 ft 388 kts 266°
2026-05-05 01:17 32.29943 -102.76283 33733 ft 388 kts 266°
2026-05-05 01:17 32.29406 -102.82594 33735 ft 387 kts 265°
2026-05-05 01:18 32.28862 -102.88942 33738 ft 387 kts 265°
2026-05-05 01:18 32.28316 -102.95279 33742 ft 387 kts 265°
2026-05-05 01:19 32.27767 -103.01616 33737 ft 387 kts 265°
2026-05-05 01:19 32.27218 -103.07921 33742 ft 387 kts 265°
2026-05-05 01:20 32.26662 -103.14255 33736 ft 387 kts 265°
2026-05-05 01:20 32.26104 -103.20585 33748 ft 387 kts 265°
2026-05-05 01:21 32.25542 -103.26930 33747 ft 387 kts 265°
2026-05-05 01:21 32.24980 -103.33225 33747 ft 388 kts 265°
2026-05-05 01:22 32.24412 -103.39563 33749 ft 388 kts 265°
2026-05-05 01:22 32.23839 -103.45915 33747 ft 388 kts 265°
2026-05-05 01:23 32.23263 -103.52261 33765 ft 387 kts 265°
2026-05-05 01:23 32.22688 -103.58556 33754 ft 387 kts 265°
2026-05-05 01:24 32.22108 -103.64883 33750 ft 386 kts 265°
2026-05-05 01:24 32.21530 -103.71145 33752 ft 385 kts 265°
2026-05-05 01:25 32.20946 -103.77439 33757 ft 385 kts 265°
2026-05-05 01:25 32.20359 -103.83737 33753 ft 385 kts 265°
2026-05-05 01:26 32.19773 -103.89988 33757 ft 385 kts 264°
2026-05-05 01:26 32.19181 -103.96268 33755 ft 385 kts 264°
2026-05-05 01:27 32.18584 -104.02567 33754 ft 385 kts 264°
2026-05-05 01:27 32.17988 -104.08820 33814 ft 385 kts 264°
2026-05-05 01:28 32.17386 -104.15109 33820 ft 384 kts 264°
2026-05-05 01:28 32.16787 -104.21327 33829 ft 384 kts 264°
2026-05-05 01:29 32.16179 -104.27608 33824 ft 385 kts 264°
2026-05-05 01:29 32.15565 -104.33918 33832 ft 388 kts 264°
2026-05-05 01:30 32.14948 -104.40228 33818 ft 390 kts 264°
2026-05-05 01:30 32.14321 -104.46607 33815 ft 391 kts 264°
2026-05-05 01:31 32.13692 -104.52968 33799 ft 391 kts 264°
2026-05-05 01:31 32.13077 -104.59349 33795 ft 392 kts 264°
2026-05-05 01:32 32.12460 -104.65710 33783 ft 392 kts 263°
2026-05-05 01:32 32.11800 -104.72068 33798 ft 391 kts 264°
2026-05-05 01:33 32.11145 -104.78434 33788 ft 391 kts 264°
2026-05-05 01:33 32.10500 -104.84760 33782 ft 391 kts 264°
2026-05-05 01:34 32.09850 -104.91136 33788 ft 391 kts 264°
2026-05-05 01:34 32.09198 -104.97501 33782 ft 390 kts 263°
2026-05-05 01:35 32.08545 -105.03844 33789 ft 389 kts 263°
2026-05-05 01:35 32.07889 -105.10183 33772 ft 388 kts 263°
2026-05-05 01:36 32.07234 -105.16486 33773 ft 388 kts 263°
2026-05-05 01:36 32.06578 -105.22769 33776 ft 387 kts 263°
2026-05-05 01:37 32.05915 -105.29082 33790 ft 387 kts 263°
2026-05-05 01:37 32.05249 -105.35393 33782 ft 387 kts 263°
2026-05-05 01:38 32.04584 -105.41662 33778 ft 387 kts 263°
2026-05-05 01:38 32.03915 -105.47947 33779 ft 386 kts 263°
2026-05-05 01:39 32.03244 -105.54211 33789 ft 385 kts 263°
2026-05-05 01:39 32.02570 -105.60484 33786 ft 386 kts 263°
2026-05-05 01:40 32.01896 -105.66725 33811 ft 386 kts 263°
2026-05-05 01:40 32.01213 -105.73010 33796 ft 386 kts 263°
2026-05-05 01:41 32.00530 -105.79272 33794 ft 386 kts 263°
2026-05-05 01:41 31.99843 -105.85543 33798 ft 385 kts 262°
2026-05-05 01:42 31.99157 -105.91782 33797 ft 385 kts 262°
2026-05-05 01:42 31.98464 -105.98046 33794 ft 385 kts 262°
2026-05-05 01:43 31.97768 -106.04310 33819 ft 384 kts 262°
2026-05-05 01:43 31.97190 -106.09497 33829 ft 384 kts 262°
2026-05-05 01:44 31.96379 -106.16737 33859 ft 383 kts 262°
2026-05-05 01:44 31.95796 -106.21918 33878 ft 382 kts 262°
2026-05-05 01:45 31.95393 -106.28157 33902 ft 383 kts 270°
2026-05-05 01:45 31.96010 -106.34417 33923 ft 384 kts 275°
2026-05-05 01:46 31.96759 -106.40612 33909 ft 384 kts 274°
2026-05-05 01:46 31.97499 -106.46850 33885 ft 384 kts 274°
2026-05-05 01:47 31.98219 -106.53068 33919 ft 381 kts 274°
2026-05-05 01:47 31.98940 -106.59247 33929 ft 384 kts 274°
2026-05-05 01:48 31.99663 -106.65502 33940 ft 385 kts 274°
2026-05-05 01:48 32.00383 -106.71778 33933 ft 385 kts 274°
2026-05-05 01:49 32.01095 -106.78012 33929 ft 386 kts 274°
2026-05-05 01:49 32.01810 -106.84299 33909 ft 386 kts 274°
2026-05-05 01:50 32.02522 -106.90585 33864 ft 386 kts 274°
2026-05-05 01:50 32.03225 -106.96816 33860 ft 386 kts 274°
2026-05-05 01:51 32.03929 -107.03089 33851 ft 385 kts 274°
2026-05-05 01:51 32.04629 -107.09354 33838 ft 385 kts 273°
2026-05-05 01:52 32.05323 -107.15596 33824 ft 385 kts 273°
2026-05-05 01:52 32.06015 -107.21851 33807 ft 385 kts 273°
2026-05-05 01:53 32.06700 -107.28072 33793 ft 385 kts 273°
2026-05-05 01:53 32.07388 -107.34339 33792 ft 384 kts 273°
2026-05-05 01:54 32.08071 -107.40594 33825 ft 384 kts 272°
2026-05-05 01:54 32.08752 -107.46866 33852 ft 385 kts 272°
2026-05-05 01:55 32.09425 -107.53087 33881 ft 385 kts 272°
2026-05-05 01:55 32.10098 -107.59339 33905 ft 384 kts 272°
2026-05-05 01:56 32.10771 -107.65617 33914 ft 386 kts 272°
2026-05-05 01:56 32.11437 -107.71872 33934 ft 386 kts 272°
2026-05-05 01:57 32.12104 -107.78158 33932 ft 386 kts 272°
2026-05-05 01:57 32.12768 -107.84443 33813 ft 386 kts 272°
2026-05-05 01:58 32.13429 -107.90732 33814 ft 386 kts 272°
2026-05-05 01:58 32.14087 -107.97018 33813 ft 386 kts 272°
2026-05-05 01:59 32.14737 -108.03262 33820 ft 386 kts 272°
2026-05-05 01:59 32.15390 -108.09568 33820 ft 386 kts 272°
2026-05-05 02:00 32.16039 -108.15863 33823 ft 386 kts 272°
2026-05-05 02:00 32.16684 -108.22152 33823 ft 386 kts 272°
2026-05-05 02:01 32.17324 -108.28423 33823 ft 386 kts 272°
2026-05-05 02:01 32.17963 -108.34719 33845 ft 386 kts 272°
2026-05-05 02:02 32.18596 -108.40987 33883 ft 386 kts 272°
2026-05-05 02:02 32.19231 -108.47300 33930 ft 386 kts 271°
2026-05-05 02:03 32.19861 -108.53603 33959 ft 386 kts 271°
2026-05-05 02:03 32.20488 -108.59900 33977 ft 386 kts 271°
2026-05-05 02:04 32.21111 -108.66191 34001 ft 385 kts 271°
2026-05-05 02:04 32.21726 -108.72440 34007 ft 385 kts 271°
2026-05-05 02:05 32.22035 -108.75589 33840 ft 385 kts 271°
2026-05-05 02:05 32.22342 -108.78722 33849 ft 385 kts 271°
2026-05-05 02:05 32.22954 -108.85007 33834 ft 385 kts 270°
2026-05-05 02:06 32.23561 -108.91264 33847 ft 385 kts 271°
2026-05-05 02:06 32.24167 -108.97545 33840 ft 384 kts 270°
2026-05-05 02:07 32.24768 -109.03805 33846 ft 383 kts 270°
2026-05-05 02:07 32.25361 -109.10023 33838 ft 383 kts 270°
2026-05-05 02:08 32.25954 -109.16268 33855 ft 383 kts 270°
2026-05-05 02:08 32.26545 -109.22523 33843 ft 382 kts 270°
2026-05-05 02:09 32.27377 -109.28714 33854 ft 388 kts 277°
2026-05-05 02:09 32.28729 -109.34877 33848 ft 387 kts 277°
2026-05-05 02:10 32.30076 -109.41050 33852 ft 387 kts 276°
2026-05-05 02:10 32.31409 -109.47218 33865 ft 387 kts 276°
2026-05-05 02:11 32.32732 -109.53384 33865 ft 387 kts 276°
2026-05-05 02:11 32.34047 -109.59535 33859 ft 388 kts 276°
2026-05-05 02:12 32.36021 -109.68798 33871 ft 388 kts 276°
2026-05-05 02:13 32.37342 -109.75013 33884 ft 388 kts 276°
2026-05-05 02:13 32.38657 -109.81221 33894 ft 389 kts 275°
2026-05-05 02:14 32.39961 -109.87393 33892 ft 390 kts 275°
2026-05-05 02:14 32.41274 -109.93621 33897 ft 390 kts 275°
2026-05-05 02:15 32.42581 -109.99832 33899 ft 390 kts 275°
2026-05-05 02:15 32.43889 -110.06068 33898 ft 389 kts 275°
2026-05-05 02:16 32.45191 -110.12288 33911 ft 389 kts 275°
2026-05-05 02:16 32.46482 -110.18488 33921 ft 390 kts 275°
2026-05-05 02:17 32.47788 -110.24759 33923 ft 392 kts 275°
2026-05-05 02:17 32.49086 -110.31036 33918 ft 392 kts 275°
2026-05-05 02:18 32.50384 -110.37309 33931 ft 393 kts 275°
2026-05-05 02:18 32.51687 -110.43597 33934 ft 392 kts 275°
2026-05-05 02:19 32.52977 -110.49865 33944 ft 391 kts 275°
2026-05-05 02:19 32.54252 -110.56075 33920 ft 389 kts 274°
2026-05-05 02:20 32.55518 -110.62258 33932 ft 387 kts 274°
2026-05-05 02:20 32.56777 -110.68425 33918 ft 386 kts 274°
2026-05-05 02:21 32.58037 -110.74615 33920 ft 385 kts 274°
2026-05-05 02:21 32.59288 -110.80771 33938 ft 386 kts 274°
2026-05-05 02:22 32.60546 -110.86996 33934 ft 387 kts 274°
2026-05-05 02:22 32.61802 -110.93218 33935 ft 388 kts 274°
2026-05-05 02:23 32.63049 -110.99407 33938 ft 388 kts 274°
2026-05-05 02:23 32.64307 -111.05668 33949 ft 388 kts 274°
2026-05-05 02:24 32.65553 -111.11886 33967 ft 389 kts 273°
2026-05-05 02:24 32.66793 -111.18100 33978 ft 390 kts 273°
2026-05-05 02:25 32.68046 -111.24387 33974 ft 390 kts 273°
2026-05-05 02:25 32.69289 -111.30641 33975 ft 391 kts 273°
2026-05-05 02:26 32.70323 -111.35857 33968 ft 391 kts 273°
2026-05-05 02:26 32.71567 -111.42149 33980 ft 391 kts 273°
2026-05-05 02:27 32.72811 -111.48459 33941 ft 391 kts 273°
2026-05-05 02:27 32.74041 -111.54714 33931 ft 390 kts 273°
2026-05-05 02:28 32.75268 -111.60975 33929 ft 390 kts 273°
2026-05-05 02:28 32.76498 -111.67266 33934 ft 389 kts 273°
2026-05-05 02:29 32.77711 -111.73491 33939 ft 389 kts 273°
2026-05-05 02:29 32.78930 -111.79766 33962 ft 389 kts 272°
2026-05-05 02:30 32.80139 -111.86004 33950 ft 388 kts 272°
2026-05-05 02:30 32.81345 -111.92243 33936 ft 387 kts 272°
2026-05-05 02:31 32.82549 -111.98491 33931 ft 387 kts 272°
2026-05-05 02:31 32.83740 -112.04690 33923 ft 386 kts 272°
2026-05-05 02:32 32.84937 -112.10937 33910 ft 386 kts 272°
2026-05-05 02:32 32.86123 -112.17141 33918 ft 387 kts 272°
2026-05-05 02:33 32.87315 -112.23402 33903 ft 388 kts 272°
2026-05-05 02:33 32.88506 -112.29674 33899 ft 388 kts 272°
2026-05-05 02:34 32.89696 -112.35955 33900 ft 390 kts 272°
2026-05-05 02:34 32.90875 -112.42205 33932 ft 391 kts 272°
2026-05-05 02:35 32.92065 -112.48522 33902 ft 392 kts 272°
2026-05-05 02:35 32.93254 -112.54853 33914 ft 393 kts 272°
2026-05-05 02:36 32.94446 -112.61213 33926 ft 393 kts 272°
2026-05-05 02:36 32.95209 -112.67522 33932 ft 381 kts 263°
2026-05-05 02:37 32.94797 -112.73751 33939 ft 376 kts 254°
2026-05-05 02:37 32.93950 -112.79924 33922 ft 378 kts 253°
2026-05-05 02:38 32.93103 -112.86104 33921 ft 379 kts 254°
2026-05-05 02:38 32.92268 -112.92255 33912 ft 379 kts 254°
2026-05-05 02:39 32.91429 -112.98456 33909 ft 378 kts 254°
2026-05-05 02:39 32.90595 -113.04607 33906 ft 377 kts 253°
2026-05-05 02:40 32.89756 -113.10771 33907 ft 377 kts 253°
2026-05-05 02:40 32.88914 -113.16924 33892 ft 377 kts 253°
2026-05-05 02:41 32.88067 -113.23100 33884 ft 377 kts 253°
2026-05-05 02:41 32.87221 -113.29242 33880 ft 377 kts 253°
2026-05-05 02:42 32.86376 -113.35353 33879 ft 377 kts 252°
2026-05-05 02:42 32.85520 -113.41528 33866 ft 376 kts 252°
2026-05-05 02:43 32.84669 -113.47641 33870 ft 376 kts 252°
2026-05-05 02:43 32.83810 -113.53788 33855 ft 375 kts 252°
2026-05-05 02:44 32.82952 -113.59909 33887 ft 374 kts 252°
2026-05-05 02:44 32.82097 -113.65983 33884 ft 374 kts 252°
2026-05-05 02:45 32.81230 -113.72090 33887 ft 374 kts 252°
2026-05-05 02:45 32.80353 -113.78181 33882 ft 373 kts 251°
2026-05-05 02:46 32.79477 -113.84252 33880 ft 372 kts 251°
2026-05-05 02:46 32.78608 -113.90260 33871 ft 370 kts 251°
2026-05-05 02:47 32.77743 -113.96304 33871 ft 371 kts 253°
2026-05-05 02:47 32.77527 -114.02536 33867 ft 380 kts 259°
2026-05-05 02:48 32.77527 -114.08771 33879 ft 382 kts 261°
2026-05-05 02:48 32.77784 -114.15103 33863 ft 384 kts 262°
2026-05-05 02:49 32.78069 -114.21403 33845 ft 384 kts 261°
2026-05-05 02:49 32.78326 -114.27730 33837 ft 383 kts 261°
2026-05-05 02:49 32.78449 -114.30903 33939 ft 383 kts 261°
2026-05-05 02:50 32.78569 -114.34069 33888 ft 384 kts 261°
2026-05-05 02:50 32.79145 -114.40435 33901 ft 404 kts 274°
2026-05-05 02:51 32.80957 -114.46803 33899 ft 405 kts 274°
2026-05-05 02:51 32.82730 -114.53096 33893 ft 402 kts 274°
2026-05-05 02:52 32.84465 -114.59397 33897 ft 400 kts 274°
2026-05-05 02:52 32.86181 -114.65666 33899 ft 398 kts 274°
2026-05-05 02:53 32.87794 -114.71934 33895 ft 384 kts 266°
2026-05-05 02:53 32.87964 -114.75023 33915 ft 369 kts 257°
2026-05-05 02:53 32.87895 -114.78057 33895 ft 371 kts 257°
2026-05-05 02:54 32.87706 -114.84234 33911 ft 376 kts 257°
2026-05-05 02:54 32.87543 -114.90437 33906 ft 377 kts 257°
2026-05-05 02:55 32.87396 -114.96694 33899 ft 377 kts 257°
2026-05-05 02:55 32.87253 -115.02901 33937 ft 377 kts 257°
2026-05-05 02:56 32.87105 -115.09148 33717 ft 380 kts 257°
2026-05-05 02:56 32.87026 -115.12316 32997 ft 379 kts 258°
2026-05-05 02:56 32.86956 -115.15423 32285 ft 371 kts 258°
2026-05-05 02:56 32.86883 -115.18498 31580 ft 370 kts 258°
2026-05-05 02:57 32.86809 -115.21497 31062 ft 365 kts 258°
2026-05-05 02:57 32.86733 -115.24520 30522 ft 361 kts 258°
2026-05-05 02:57 32.86658 -115.27489 29981 ft 357 kts 258°
2026-05-05 02:57 32.86582 -115.30441 29363 ft 354 kts 258°
2026-05-05 02:58 32.86509 -115.33318 28880 ft 349 kts 258°
2026-05-05 02:58 32.86305 -115.36134 28309 ft 339 kts 253°
2026-05-05 02:58 32.85902 -115.38882 27794 ft 333 kts 251°
2026-05-05 02:58 32.85479 -115.41576 27266 ft 330 kts 252°
2026-05-05 02:59 32.85078 -115.44252 26748 ft 328 kts 252°
2026-05-05 02:59 32.84696 -115.46910 26242 ft 327 kts 253°
2026-05-05 02:59 32.84313 -115.49570 25790 ft 327 kts 253°
2026-05-05 02:59 32.83881 -115.52276 25403 ft 340 kts 252°
2026-05-05 03:00 32.83420 -115.55043 24980 ft 348 kts 253°
2026-05-05 03:00 32.82949 -115.57880 24553 ft 351 kts 253°
2026-05-05 03:00 32.82480 -115.60730 24127 ft 349 kts 253°
2026-05-05 03:00 32.82014 -115.63567 23709 ft 348 kts 253°
2026-05-05 03:01 32.81549 -115.66400 23249 ft 349 kts 255°
2026-05-05 03:01 32.81089 -115.69201 22781 ft 348 kts 255°
2026-05-05 03:01 32.80624 -115.72034 22334 ft 347 kts 255°
2026-05-05 03:01 32.80161 -115.74851 21908 ft 347 kts 255°
2026-05-05 03:02 32.79698 -115.77663 21506 ft 346 kts 255°
2026-05-05 03:02 32.79234 -115.80474 21089 ft 345 kts 255°
2026-05-05 03:02 32.78783 -115.83201 20689 ft 345 kts 255°
2026-05-05 03:02 32.78366 -115.86038 20270 ft 347 kts 259°
2026-05-05 03:03 32.78116 -115.88868 19866 ft 348 kts 261°
2026-05-05 03:03 32.77923 -115.91700 19461 ft 349 kts 262°
2026-05-05 03:03 32.77735 -115.94608 19040 ft 349 kts 262°
2026-05-05 03:03 32.77542 -115.97498 18613 ft 350 kts 262°
2026-05-05 03:04 32.77339 -116.00393 18177 ft 352 kts 262°
2026-05-05 03:04 32.77128 -116.03298 17717 ft 353 kts 262°
2026-05-05 03:04 32.76916 -116.06164 17271 ft 350 kts 262°
2026-05-05 03:04 32.76701 -116.09032 16849 ft 346 kts 262°
2026-05-05 03:05 32.76486 -116.11877 16426 ft 343 kts 262°
2026-05-05 03:05 32.76272 -116.14693 16031 ft 339 kts 262°
2026-05-05 03:05 32.76060 -116.17471 15622 ft 336 kts 261°
2026-05-05 03:05 32.75848 -116.20226 15223 ft 333 kts 261°
2026-05-05 03:06 32.75709 -116.22037 14955 ft 332 kts 261°
2026-05-05 03:06 32.75433 -116.25632 14404 ft 327 kts 261°
2026-05-05 03:06 32.75224 -116.28306 14048 ft 323 kts 261°
2026-05-05 03:06 32.75089 -116.30057 13788 ft 321 kts 261°
2026-05-05 03:07 32.74889 -116.32673 13348 ft 310 kts 261°
2026-05-05 03:07 32.74696 -116.35175 12964 ft 302 kts 261°
2026-05-05 03:07 32.74502 -116.37666 12601 ft 299 kts 261°
2026-05-05 03:07 32.74310 -116.40120 12254 ft 297 kts 261°
2026-05-05 03:08 32.74122 -116.42527 11894 ft 295 kts 261°
2026-05-05 03:08 32.73933 -116.44937 11540 ft 292 kts 261°
2026-05-05 03:08 32.73749 -116.47292 11576 ft 274 kts 261°
2026-05-05 03:08 32.73585 -116.49435 11582 ft 250 kts 261°
2026-05-05 03:09 32.73415 -116.51412 11462 ft 230 kts 259°
2026-05-05 03:09 32.73240 -116.53232 11349 ft 212 kts 259°
2026-05-05 03:09 32.73075 -116.54914 11169 ft 199 kts 258°
2026-05-05 03:09 32.72914 -116.56531 10745 ft 195 kts 259°
2026-05-05 03:10 32.72756 -116.58139 10228 ft 201 kts 261°
2026-05-05 03:10 32.72594 -116.59783 9913 ft 200 kts 261°
2026-05-05 03:10 32.72434 -116.61421 9573 ft 198 kts 261°
2026-05-05 03:10 32.72276 -116.63047 9201 ft 198 kts 262°
2026-05-05 03:11 32.72119 -116.64670 8803 ft 198 kts 262°
2026-05-05 03:11 32.71969 -116.66280 8493 ft 196 kts 264°
2026-05-05 03:11 32.71844 -116.67887 8230 ft 192 kts 264°
2026-05-05 03:11 32.71721 -116.69466 7976 ft 193 kts 264°
2026-05-05 03:12 32.71598 -116.71040 7732 ft 193 kts 265°
2026-05-05 03:12 32.71472 -116.72628 7480 ft 193 kts 265°
2026-05-05 03:12 32.71348 -116.74226 7246 ft 195 kts 265°
2026-05-05 03:12 32.71222 -116.75825 7004 ft 197 kts 265°
2026-05-05 03:13 32.71094 -116.77456 6747 ft 199 kts 266°
2026-05-05 03:13 32.70966 -116.79076 6479 ft 197 kts 266°
2026-05-05 03:13 32.70838 -116.80681 6200 ft 192 kts 266°
2026-05-05 03:13 32.70661 -116.82243 5958 ft 190 kts 255°
2026-05-05 03:14 32.70184 -116.83694 5757 ft 187 kts 251°
2026-05-05 03:14 32.69719 -116.85142 5546 ft 187 kts 252°
2026-05-05 03:14 32.69262 -116.86593 5334 ft 188 kts 252°
2026-05-05 03:14 32.68804 -116.88062 5086 ft 191 kts 251°
2026-05-05 03:15 32.68354 -116.89566 4906 ft 196 kts 252°
2026-05-05 03:15 32.67899 -116.91106 4671 ft 199 kts 252°
2026-05-05 03:15 32.67447 -116.92638 4423 ft 198 kts 252°
2026-05-05 03:15 32.67335 -116.94221 4167 ft 193 kts 285°
2026-05-05 03:16 32.67722 -116.95725 4015 ft 190 kts 285°
2026-05-05 03:16 32.68079 -116.97211 3804 ft 183 kts 284°
2026-05-05 03:16 32.68422 -116.98638 3574 ft 176 kts 284°
2026-05-05 03:16 32.68747 -116.99976 3387 ft 164 kts 284°
2026-05-05 03:17 32.69062 -117.01278 3178 ft 163 kts 284°
2026-05-05 03:17 32.69372 -117.02557 2955 ft 160 kts 284°
2026-05-05 03:17 32.69666 -117.03764 2799 ft 150 kts 283°
2026-05-05 03:17 32.69949 -117.04928 2570 ft 148 kts 283°
2026-05-05 03:18 32.70232 -117.06098 2423 ft 146 kts 282°
2026-05-05 03:18 32.70514 -117.07284 2240 ft 152 kts 283°
2026-05-05 03:18 32.70805 -117.08482 2033 ft 148 kts 283°
2026-05-05 03:18 32.71073 -117.09644 1785 ft 147 kts 284°
2026-05-05 03:19 32.71676 -117.12013 1274 ft 152 kts 284°
2026-05-05 03:19 32.71973 -117.13228 1083 ft 154 kts 282°
2026-05-05 03:19 32.72251 -117.14442 817 ft 149 kts 283°
2026-05-05 03:20 32.72555 -117.15612 559 ft 146 kts 282°
2026-05-05 03:20 32.72826 -117.16768 292 ft 144 kts 282°
2026-05-05 03:20 32.73097 -117.17902 63 ft 142 kts 283°
2026-05-05 03:20 32.73346 -117.18927 22 ft 89 kts 286°
2026-05-05 03:21 32.73458 -117.19388 22 ft 41 kts 286°
2026-05-05 03:21 32.73527 -117.19675 26 ft 20 kts 284°
2026-05-05 03:21 32.73527 -117.19777 24 ft 10 kts 255°
2026-05-05 03:21 32.73508 -117.19844 23 ft 8 kts 249°
2026-05-05 03:22 32.73495 -117.19887 22 ft 5 kts 251°
2026-05-05 03:22 32.73489 -117.19919 22 ft 6 kts 265°
2026-05-05 03:22 32.73495 -117.19968 24 ft 6 kts 285°
2026-05-05 03:22 32.73504 -117.20004 22 ft 0 kts 284°
2026-05-05 03:23 32.73504 -117.20006 22 ft 2 kts 284°
2026-05-05 03:24 32.73504 -117.20013 22 ft 1 kts 255°
2026-05-05 03:24 32.73489 -117.20026 22 ft 5 kts 217°
2026-05-05 03:24 32.73454 -117.20052 23 ft 6 kts 211°
2026-05-05 03:24 32.73433 -117.20067 22 ft 3 kts 211°
2026-05-05 03:25 32.73420 -117.20076 22 ft 0 kts 211°